User: anonymous   Login
Location: Unspecified
(41.1637°N, 24.2901°E)
Time: 03:00:19
(UTC+01:00)
Language:

ISS - Orbit

View from above orbital plane
View from above orbital plane
View from above satellite
View from above satellite

Ground track
Ground track

The orbit data is extracted from the following two-line orbital elements,

1 25544U 98067A   25322.35181354  .00014877  00000-0  27011-3 0  9995
2 25544  51.6332 263.1865 0004177  83.8870 276.2595 15.49788164539079
Epoch (UTC): 18 November 2025 08:26:36
Eccentricity: 0.0004177
inclination: 51.6332°
perigee height: 414 km
apogee height: 420 km
right ascension of ascending node: 263.1865°
argument of perigee: 83.8870°
revolutions per day: 15.49788164
mean anomaly at epoch: 276.2595°
orbit number at epoch: 53907

The dashed part of the orbit path shows where the satellite is in the earth's shadow,  

DLR